Wetterdaten: Freitag, 10.10.2014
Datum Zeit Temp. A. Feuchte A. Luftdruck Regen Wind Richtung Richtung Sonnenschein ET UV Solar Taupunkt Windchill Windben Empfang
10.10.2014 00:00 12,8 C 87 % 1011,3 hPa 0,0 l/m 0,0 km/h (0 Bft) O-SO 118 0 min 0,000 mm 0,0 UV-I 0 W/m 10,7 C 12,8 C 0,0 km/h (0 Bft) 0,00 %
10.10.2014 00:15 12,8 C 87 % 1011,3 hPa 0,0 l/m 0,4 km/h (0 Bft) SO 131 0 min 0,000 mm 0,0 UV-I 0 W/m 10,7 C 12,8 C 4,0 km/h (1 Bft) 0,00 %
10.10.2014 00:30 12,9 C 87 % 1011,3 hPa 0,0 l/m 0,0 km/h (0 Bft) SO 132 0 min 0,000 mm 0,0 UV-I 0 W/m 10,8 C 12,9 C 0,0 km/h (0 Bft) 0,00 %
10.10.2014 00:45 12,9 C 87 % 1011,4 hPa 0,0 l/m 0,0 km/h (0 Bft) S 173 0 min 0,000 mm 0,0 UV-I 0 W/m 10,8 C 12,9 C 0,0 km/h (0 Bft) 0,00 %
10.10.2014 01:00 12,9 C 87 % 1011,6 hPa 0,0 l/m 0,0 km/h (0 Bft) S 182 0 min 0,000 mm 0,0 UV-I 0 W/m 10,8 C 12,9 C 0,0 km/h (0 Bft) 0,00 %
10.10.2014 01:15 12,8 C 87 % 1011,7 hPa 0,0 l/m 0,0 km/h (0 Bft) S 170 0 min 0,000 mm 0,0 UV-I 0 W/m 10,7 C 12,8 C 0,0 km/h (0 Bft) 0,00 %
10.10.2014 01:30 12,8 C 87 % 1011,9 hPa 0,0 l/m 0,0 km/h (0 Bft) SW 231 0 min 0,000 mm 0,0 UV-I 0 W/m 10,7 C 12,8 C 0,0 km/h (0 Bft) 0,00 %
10.10.2014 01:45 12,7 C 87 % 1012,0 hPa 0,0 l/m 0,0 km/h (0 Bft) S 173 0 min 0,000 mm 0,0 UV-I 0 W/m 10,6 C 12,7 C 0,0 km/h (0 Bft) 0,00 %
10.10.2014 02:00 12,7 C 87 % 1012,3 hPa 0,0 l/m 0,0 km/h (0 Bft) SW 229 0 min 0,000 mm 0,0 UV-I 0 W/m 10,6 C 12,7 C 0,0 km/h (0 Bft) 0,00 %
10.10.2014 02:15 12,6 C 87 % 1012,4 hPa 0,3 l/m 0,0 km/h (0 Bft) W-SW 255 0 min 0,000 mm 0,0 UV-I 0 W/m 10,5 C 12,6 C 0,0 km/h (0 Bft) 0,00 %
10.10.2014 02:30 12,6 C 87 % 1012,7 hPa 0,0 l/m 0,0 km/h (0 Bft) S-SW 210 0 min 0,000 mm 0,0 UV-I 0 W/m 10,5 C 12,6 C 0,0 km/h (0 Bft) 0,00 %
10.10.2014 02:45 12,2 C 88 % 1012,6 hPa 0,0 l/m 0,0 km/h (0 Bft) W-SW 255 0 min 0,000 mm 0,0 UV-I 0 W/m 10,3 C 12,2 C 0,0 km/h (0 Bft) 0,00 %
10.10.2014 03:00 11,9 C 88 % 1012,8 hPa 0,0 l/m 0,0 km/h (0 Bft) S-SW 192 0 min 0,000 mm 0,0 UV-I 0 W/m 10,0 C 11,9 C 0,0 km/h (0 Bft) 0,00 %
10.10.2014 03:15 11,7 C 88 % 1013,0 hPa 0,0 l/m 0,0 km/h (0 Bft) SW 218 0 min 0,000 mm 0,0 UV-I 0 W/m 9,8 C 11,7 C 0,0 km/h (0 Bft) 0,00 %
10.10.2014 03:30 11,6 C 88 % 1013,0 hPa 0,0 l/m 0,0 km/h (0 Bft) W 265 0 min 0,000 mm 0,0 UV-I 0 W/m 9,7 C 11,6 C 0,0 km/h (0 Bft) 0,00 %
10.10.2014 03:45 11,4 C 88 % 1013,1 hPa 0,0 l/m 0,0 km/h (0 Bft) S-SW 199 0 min 0,000 mm 0,0 UV-I 0 W/m 9,5 C 11,4 C 0,0 km/h (0 Bft) 0,00 %
10.10.2014 04:00 11,3 C 88 % 1013,1 hPa 0,0 l/m 0,0 km/h (0 Bft) S 179 0 min 0,000 mm 0,0 UV-I 0 W/m 9,4 C 11,3 C 0,0 km/h (0 Bft) 0,00 %
10.10.2014 04:15 11,2 C 88 % 1013,3 hPa 0,0 l/m 0,0 km/h (0 Bft) S-SW 192 0 min 0,000 mm 0,0 UV-I 0 W/m 9,3 C 11,2 C 0,0 km/h (0 Bft) 0,00 %
10.10.2014 04:30 11,2 C 88 % 1013,2 hPa 0,0 l/m 0,0 km/h (0 Bft) S 174 0 min 0,000 mm 0,0 UV-I 0 W/m 9,3 C 11,2 C 0,0 km/h (0 Bft) 0,00 %
10.10.2014 04:45 11,2 C 88 % 1013,4 hPa 0,0 l/m 0,0 km/h (0 Bft) SW 217 0 min 0,000 mm 0,0 UV-I 0 W/m 9,3 C 11,2 C 0,0 km/h (0 Bft) 0,00 %
10.10.2014 05:00 11,2 C 88 % 1013,5 hPa 0,0 l/m 0,0 km/h (0 Bft) S 182 0 min 0,000 mm 0,0 UV-I 0 W/m 9,3 C 11,2 C 0,0 km/h (0 Bft) 0,00 %
10.10.2014 05:15 11,1 C 88 % 1013,6 hPa 0,0 l/m 0,0 km/h (0 Bft) S 182 0 min 0,000 mm 0,0 UV-I 0 W/m 9,2 C 11,1 C 0,0 km/h (0 Bft) 0,00 %
10.10.2014 05:30 11,1 C 88 % 1013,7 hPa 0,0 l/m 0,0 km/h (0 Bft) S 182 0 min 0,000 mm 0,0 UV-I 0 W/m 9,2 C 11,1 C 0,0 km/h (0 Bft) 0,00 %
10.10.2014 05:45 11,1 C 88 % 1013,9 hPa 0,0 l/m 0,0 km/h (0 Bft) S 190 0 min 0,000 mm 0,0 UV-I 0 W/m 9,2 C 11,1 C 0,0 km/h (0 Bft) 0,00 %
10.10.2014 06:00 11,1 C 88 % 1014,1 hPa 0,0 l/m 0,0 km/h (0 Bft) SW 219 0 min 0,000 mm 0,0 UV-I 0 W/m 9,2 C 11,1 C 0,0 km/h (0 Bft) 0,00 %
10.10.2014 06:15 11,1 C 88 % 1014,2 hPa 0,0 l/m 0,0 km/h (0 Bft) S 174 0 min 0,000 mm 0,0 UV-I 0 W/m 9,2 C 11,1 C 0,0 km/h (0 Bft) 0,00 %
10.10.2014 06:30 11,1 C 88 % 1014,3 hPa 0,0 l/m 0,0 km/h (0 Bft) SO 136 0 min 0,000 mm 0,0 UV-I 0 W/m 9,2 C 11,1 C 0,0 km/h (0 Bft) 0,00 %
10.10.2014 06:45 11,1 C 88 % 1014,1 hPa 0,0 l/m 0,0 km/h (0 Bft) SO 128 0 min 0,000 mm 0,0 UV-I 0 W/m 9,2 C 11,1 C 0,0 km/h (0 Bft) 0,00 %
10.10.2014 07:00 11,2 C 88 % 1014,4 hPa 0,0 l/m 0,0 km/h (0 Bft) SO 134 0 min 0,000 mm 0,0 UV-I 0 W/m 9,3 C 11,2 C 0,0 km/h (0 Bft) 0,00 %
10.10.2014 07:15 11,2 C 88 % 1014,7 hPa 0,0 l/m 0,0 km/h (0 Bft) S 187 0 min 0,000 mm 0,0 UV-I 0 W/m 9,3 C 11,2 C 0,0 km/h (0 Bft) 0,00 %
10.10.2014 07:30 11,0 C 88 % 1014,7 hPa 0,0 l/m 0,0 km/h (0 Bft) NW 313 0 min 0,000 mm 0,0 UV-I 1 W/m 9,1 C 11,0 C 0,0 km/h (0 Bft) 0,00 %
10.10.2014 07:45 11,0 C 88 % 1014,7 hPa 0,0 l/m 0,0 km/h (0 Bft) S-SW 197 0 min 0,000 mm 0,0 UV-I 12 W/m 9,1 C 11,0 C 0,0 km/h (0 Bft) 0,00 %
10.10.2014 08:00 11,1 C 88 % 1015,1 hPa 0,0 l/m 0,0 km/h (0 Bft) S 178 0 min 0,000 mm 0,0 UV-I 20 W/m 9,2 C 11,1 C 0,0 km/h (0 Bft) 0,00 %
10.10.2014 08:15 11,3 C 88 % 1015,1 hPa 0,0 l/m 0,0 km/h (0 Bft) S-SW 192 0 min 0,000 mm 1,0 UV-I 34 W/m 9,4 C 11,3 C 0,0 km/h (0 Bft) 0,00 %
10.10.2014 08:30 11,7 C 88 % 1015,1 hPa 0,0 l/m 0,0 km/h (0 Bft) SO 144 0 min 0,000 mm 1,0 UV-I 51 W/m 9,8 C 11,7 C 0,0 km/h (0 Bft) 0,00 %
10.10.2014 08:45 11,7 C 88 % 1015,0 hPa 0,0 l/m 0,7 km/h (0 Bft) S 190 0 min 0,000 mm 1,0 UV-I 62 W/m 9,8 C 11,7 C 4,0 km/h (1 Bft) 0,00 %
10.10.2014 09:00 11,7 C 88 % 1015,2 hPa 0,0 l/m 0,0 km/h (0 Bft) S-SO 161 0 min 0,000 mm 1,0 UV-I 87 W/m 9,8 C 11,7 C 0,0 km/h (0 Bft) 0,00 %
10.10.2014 09:15 11,8 C 88 % 1015,5 hPa 0,0 l/m 0,0 km/h (0 Bft) O-SO 117 0 min 0,000 mm 1,0 UV-I 105 W/m 9,9 C 11,8 C 0,0 km/h (0 Bft) 0,00 %
10.10.2014 09:30 12,1 C 88 % 1015,3 hPa 0,0 l/m 0,0 km/h (0 Bft) O-SO 112 0 min 0,000 mm 2,0 UV-I 96 W/m 10,2 C 12,1 C 0,0 km/h (0 Bft) 0,00 %
10.10.2014 09:45 12,1 C 88 % 1015,3 hPa 0,0 l/m 0,0 km/h (0 Bft) W-NW 300 0 min 0,000 mm 2,0 UV-I 127 W/m 10,2 C 12,1 C 0,0 km/h (0 Bft) 0,00 %
10.10.2014 10:00 12,6 C 86 % 1015,5 hPa 0,0 l/m 0,0 km/h (0 Bft) S 173 0 min 0,000 mm 2,0 UV-I 136 W/m 10,3 C 12,6 C 0,0 km/h (0 Bft) 0,00 %
10.10.2014 10:15 12,8 C 84 % 1015,6 hPa 0,0 l/m 0,0 km/h (0 Bft) W 280 0 min 0,000 mm 2,0 UV-I 135 W/m 10,2 C 12,8 C 0,0 km/h (0 Bft) 0,00 %
10.10.2014 10:30 13,2 C 82 % 1016,0 hPa 0,0 l/m 0,0 km/h (0 Bft) W-NW 299 0 min 0,000 mm 1,0 UV-I 157 W/m 10,2 C 13,2 C 0,0 km/h (0 Bft) 0,00 %
10.10.2014 10:45 13,8 C 81 % 1015,6 hPa 0,0 l/m 0,0 km/h (0 Bft) O-SO 116 0 min 0,000 mm 2,0 UV-I 127 W/m 10,6 C 13,8 C 0,0 km/h (0 Bft) 0,00 %
10.10.2014 11:00 14,0 C 80 % 1015,4 hPa 0,0 l/m 0,0 km/h (0 Bft) O-SO 120 0 min 0,000 mm 2,0 UV-I 187 W/m 10,6 C 14,0 C 0,0 km/h (0 Bft) 0,00 %
10.10.2014 11:15 14,3 C 80 % 1015,4 hPa 0,0 l/m 0,0 km/h (0 Bft) W-SW 256 0 min 0,000 mm 2,0 UV-I 199 W/m 10,9 C 14,3 C 0,0 km/h (0 Bft) 0,00 %
10.10.2014 11:30 14,1 C 80 % 1015,4 hPa 0,0 l/m 0,0 km/h (0 Bft) N-NO 31 0 min 0,000 mm 2,0 UV-I 180 W/m 10,7 C 14,1 C 0,0 km/h (0 Bft) 0,00 %
10.10.2014 11:45 14,7 C 78 % 1015,5 hPa 0,0 l/m 0,4 km/h (0 Bft) SW 230 0 min 0,000 mm 2,0 UV-I 169 W/m 10,9 C 14,7 C 4,0 km/h (1 Bft) 0,00 %
10.10.2014 12:00 15,2 C 74 % 1015,2 hPa 0,0 l/m 0,0 km/h (0 Bft) S-SW 195 0 min 0,000 mm 2,0 UV-I 169 W/m 10,6 C 15,2 C 0,0 km/h (0 Bft) 0,00 %
10.10.2014 12:15 15,3 C 75 % 1015,0 hPa 0,0 l/m 0,0 km/h (0 Bft) O-NO 68 0 min 0,000 mm 3,0 UV-I 300 W/m 10,9 C 15,3 C 0,0 km/h (0 Bft) 0,00 %
10.10.2014 12:30 16,1 C 71 % 1013,9 hPa 0,0 l/m 0,0 km/h (0 Bft) O-SO 105 15 min 0,000 mm 3,0 UV-I 327 W/m 10,8 C 16,1 C 0,0 km/h (0 Bft) 0,00 %
10.10.2014 12:45 16,4 C 69 % 1014,0 hPa 0,0 l/m 0,0 km/h (0 Bft) O-SO 120 0 min 0,000 mm 3,0 UV-I 317 W/m 10,7 C 16,4 C 0,0 km/h (0 Bft) 0,00 %
10.10.2014 13:00 16,6 C 69 % 1013,6 hPa 0,0 l/m 0,0 km/h (0 Bft) NW 312 0 min 0,000 mm 3,0 UV-I 275 W/m 10,9 C 16,6 C 0,0 km/h (0 Bft) 0,00 %
10.10.2014 13:15 16,5 C 69 % 1013,4 hPa 0,0 l/m 0,0 km/h (0 Bft) O-SO 119 0 min 0,000 mm 2,0 UV-I 215 W/m 10,8 C 16,5 C 0,0 km/h (0 Bft) 0,00 %
10.10.2014 13:30 17,0 C 70 % 1013,2 hPa 0,0 l/m 0,0 km/h (0 Bft) W-SW 247 0 min 0,000 mm 2,0 UV-I 176 W/m 11,5 C 17,0 C 0,0 km/h (0 Bft) 0,00 %
10.10.2014 13:45 16,6 C 70 % 1013,3 hPa 0,0 l/m 0,0 km/h (0 Bft) W-SW 256 0 min 0,000 mm 2,0 UV-I 164 W/m 11,1 C 16,6 C 0,0 km/h (0 Bft) 0,00 %
10.10.2014 14:00 16,7 C 71 % 1013,2 hPa 0,0 l/m 0,7 km/h (0 Bft) W 277 0 min 0,000 mm 2,0 UV-I 157 W/m 11,4 C 16,7 C 4,0 km/h (1 Bft) 0,00 %
10.10.2014 14:15 17,1 C 71 % 1012,8 hPa 0,0 l/m 0,0 km/h (0 Bft) SW 231 0 min 0,000 mm 2,0 UV-I 130 W/m 11,8 C 17,1 C 0,0 km/h (0 Bft) 0,00 %
10.10.2014 14:30 17,3 C 70 % 1012,7 hPa 0,0 l/m 0,0 km/h (0 Bft) S-SW 201 0 min 0,000 mm 2,0 UV-I 116 W/m 11,8 C 17,3 C 0,0 km/h (0 Bft) 0,00 %
10.10.2014 14:45 17,6 C 69 % 1013,2 hPa 0,0 l/m 0,0 km/h (0 Bft) W-SW 253 0 min 0,000 mm 2,0 UV-I 150 W/m 11,8 C 17,6 C 0,0 km/h (0 Bft) 0,00 %
10.10.2014 15:00 17,1 C 71 % 1013,5 hPa 0,0 l/m 0,0 km/h (0 Bft) W-SW 251 0 min 0,000 mm 2,0 UV-I 107 W/m 11,8 C 17,1 C 0,0 km/h (0 Bft) 0,00 %
10.10.2014 15:15 17,2 C 72 % 1013,3 hPa 0,0 l/m 0,0 km/h (0 Bft) SW 224 0 min 0,000 mm 2,0 UV-I 157 W/m 12,1 C 17,2 C 0,0 km/h (0 Bft) 0,00 %
10.10.2014 15:30 17,5 C 70 % 1013,3 hPa 0,0 l/m 0,4 km/h (0 Bft) O-NO 64 0 min 0,000 mm 2,0 UV-I 166 W/m 12,0 C 17,5 C 4,0 km/h (1 Bft) 0,00 %
10.10.2014 15:45 17,9 C 69 % 1012,3 hPa 0,0 l/m 0,0 km/h (0 Bft) N 353 0 min 0,000 mm 2,0 UV-I 183 W/m 12,1 C 17,9 C 0,0 km/h (0 Bft) 0,00 %
10.10.2014 16:00 18,3 C 68 % 1011,9 hPa 0,0 l/m 0,0 km/h (0 Bft) W 278 0 min 0,000 mm 1,0 UV-I 172 W/m 12,3 C 18,3 C 0,0 km/h (0 Bft) 0,00 %
10.10.2014 16:15 18,1 C 69 % 1012,1 hPa 0,0 l/m 0,0 km/h (0 Bft) O 97 0 min 0,000 mm 1,0 UV-I 136 W/m 12,3 C 18,1 C 0,0 km/h (0 Bft) 0,00 %
10.10.2014 16:30 18,0 C 68 % 1012,1 hPa 0,0 l/m 0,0 km/h (0 Bft) O-SO 122 0 min 0,000 mm 1,0 UV-I 124 W/m 12,0 C 18,0 C 0,0 km/h (0 Bft) 0,00 %
10.10.2014 16:45 18,2 C 67 % 1012,0 hPa 0,0 l/m 0,0 km/h (0 Bft) SO 138 0 min 0,000 mm 1,0 UV-I 124 W/m 12,0 C 18,2 C 0,0 km/h (0 Bft) 0,00 %
10.10.2014 17:00 18,6 C 66 % 1012,2 hPa 0,0 l/m 0,7 km/h (0 Bft) SO 129 15 min 0,000 mm 1,0 UV-I 245 W/m 12,1 C 18,6 C 4,0 km/h (1 Bft) 0,00 %
10.10.2014 17:15 18,4 C 67 % 1012,6 hPa 0,0 l/m 0,7 km/h (0 Bft) O 99 15 min 0,000 mm 1,0 UV-I 240 W/m 12,2 C 18,4 C 4,0 km/h (1 Bft) 0,00 %
10.10.2014 17:30 18,0 C 68 % 1012,9 hPa 0,0 l/m 0,4 km/h (0 Bft) O-SO 111 15 min 0,000 mm 0,0 UV-I 235 W/m 12,0 C 18,0 C 4,0 km/h (1 Bft) 0,00 %
10.10.2014 17:45 17,2 C 71 % 1013,4 hPa 0,0 l/m 0,0 km/h (0 Bft) NW 325 0 min 0,000 mm 0,0 UV-I 44 W/m 11,9 C 17,2 C 0,0 km/h (0 Bft) 0,00 %
10.10.2014 18:00 16,3 C 75 % 1013,4 hPa 0,0 l/m 0,0 km/h (0 Bft) O-NO 78 0 min 0,000 mm 0,0 UV-I 31 W/m 11,9 C 16,3 C 0,0 km/h (0 Bft) 0,00 %
10.10.2014 18:15 15,9 C 77 % 1013,4 hPa 0,0 l/m 0,0 km/h (0 Bft) SO 124 0 min 0,000 mm 0,0 UV-I 5 W/m 11,9 C 15,9 C 0,0 km/h (0 Bft) 0,00 %
10.10.2014 18:30 15,7 C 78 % 1013,4 hPa 0,0 l/m 4,3 km/h (1 Bft) O 85 0 min 0,000 mm 0,0 UV-I 0 W/m 11,9 C 15,7 C 7,9 km/h (2 Bft) 0,00 %
10.10.2014 18:45 15,4 C 80 % 1013,7 hPa 0,0 l/m 0,0 km/h (0 Bft) S 172 0 min 0,000 mm 0,0 UV-I 0 W/m 12,0 C 15,4 C 0,0 km/h (0 Bft) 0,00 %
10.10.2014 19:00 14,8 C 81 % 1013,6 hPa 0,0 l/m 0,4 km/h (0 Bft) N 354 0 min 0,000 mm 0,0 UV-I 0 W/m 11,6 C 14,8 C 4,0 km/h (1 Bft) 0,00 %
10.10.2014 19:15 14,7 C 82 % 1013,9 hPa 0,0 l/m 0,0 km/h (0 Bft) SO 130 0 min 0,000 mm 0,0 UV-I 0 W/m 11,7 C 14,7 C 0,0 km/h (0 Bft) 0,00 %
10.10.2014 19:30 14,5 C 82 % 1014,0 hPa 0,0 l/m 4,7 km/h (1 Bft) O-SO 120 0 min 0,000 mm 0,0 UV-I 0 W/m 11,5 C 14,5 C 7,9 km/h (2 Bft) 0,00 %
10.10.2014 19:45 14,5 C 81 % 1014,4 hPa 0,0 l/m 0,0 km/h (0 Bft) S 177 0 min 0,000 mm 0,0 UV-I 0 W/m 11,3 C 14,5 C 0,0 km/h (0 Bft) 0,00 %
10.10.2014 20:00 14,2 C 83 % 1014,3 hPa 0,0 l/m 0,7 km/h (0 Bft) O-SO 110 0 min 0,000 mm 0,0 UV-I 0 W/m 11,4 C 14,2 C 4,0 km/h (1 Bft) 0,00 %
10.10.2014 20:15 14,0 C 83 % 1014,5 hPa 0,0 l/m 0,0 km/h (0 Bft) SO 130 0 min 0,000 mm 0,0 UV-I 0 W/m 11,2 C 14,0 C 0,0 km/h (0 Bft) 0,00 %
10.10.2014 20:30 13,9 C 83 % 1014,1 hPa 0,0 l/m 9,4 km/h (2 Bft) O 93 0 min 0,000 mm 0,0 UV-I 0 W/m 11,1 C 12,2 C 15,8 km/h (3 Bft) 0,00 %
10.10.2014 20:45 13,9 C 83 % 1014,0 hPa 0,0 l/m 6,5 km/h (2 Bft) NO 47 0 min 0,000 mm 0,0 UV-I 0 W/m 11,1 C 13,9 C 15,8 km/h (3 Bft) 0,00 %
10.10.2014 21:00 14,0 C 83 % 1014,1 hPa 0,0 l/m 4,3 km/h (1 Bft) O-SO 107 0 min 0,000 mm 0,0 UV-I 0 W/m 11,2 C 14,0 C 7,9 km/h (2 Bft) 0,00 %
10.10.2014 21:15 14,1 C 83 % 1014,2 hPa 0,0 l/m 4,3 km/h (1 Bft) O-SO 122 0 min 0,000 mm 0,0 UV-I 0 W/m 11,3 C 14,1 C 7,9 km/h (2 Bft) 0,00 %
10.10.2014 21:30 14,0 C 83 % 1014,7 hPa 0,0 l/m 4,0 km/h (1 Bft) S 172 0 min 0,000 mm 0,0 UV-I 0 W/m 11,2 C 14,0 C 7,9 km/h (2 Bft) 0,00 %
10.10.2014 21:45 14,0 C 83 % 1014,2 hPa 0,0 l/m 11,5 km/h (2 Bft) O-SO 112 0 min 0,000 mm 0,0 UV-I 0 W/m 11,2 C 11,3 C 15,8 km/h (3 Bft) 0,00 %
10.10.2014 22:00 14,1 C 83 % 1013,9 hPa 0,0 l/m 0,4 km/h (0 Bft) SO 128 0 min 0,000 mm 0,0 UV-I 0 W/m 11,3 C 14,1 C 4,0 km/h (1 Bft) 0,00 %
10.10.2014 22:15 14,0 C 83 % 1013,9 hPa 0,0 l/m 4,0 km/h (1 Bft) SO 132 0 min 0,000 mm 0,0 UV-I 0 W/m 11,2 C 14,0 C 7,9 km/h (2 Bft) 0,00 %
10.10.2014 22:30 14,2 C 83 % 1013,7 hPa 0,0 l/m 0,4 km/h (0 Bft) O-NO 74 0 min 0,000 mm 0,0 UV-I 0 W/m 11,4 C 14,2 C 4,0 km/h (1 Bft) 0,00 %
10.10.2014 22:45 14,2 C 83 % 1013,7 hPa 0,0 l/m 1,4 km/h (1 Bft) O 95 0 min 0,000 mm 0,0 UV-I 0 W/m 11,4 C 14,2 C 4,0 km/h (1 Bft) 0,00 %
10.10.2014 23:00 14,2 C 83 % 1013,8 hPa 0,0 l/m 5,4 km/h (1 Bft) O-SO 117 0 min 0,000 mm 0,0 UV-I 0 W/m 11,4 C 14,2 C 7,9 km/h (2 Bft) 0,00 %
10.10.2014 23:15 14,3 C 83 % 1013,6 hPa 0,0 l/m 1,8 km/h (1 Bft) SO 137 0 min 0,000 mm 0,0 UV-I 0 W/m 11,5 C 14,3 C 4,0 km/h (1 Bft) 0,00 %
10.10.2014 23:30 14,3 C 83 % 1013,4 hPa 0,0 l/m 13,3 km/h (3 Bft) O-SO 116 0 min 0,000 mm 0,0 UV-I 0 W/m 11,5 C 11,0 C 19,8 km/h (3 Bft) 0,00 %
_ Min-Zeit 07:30 17:00 00:00 - 00:00 - - - - - - 07:30 23:30 00:00 00:00
Minimum _ 11,0 C 66 % 1011,3 hPa - 0,0 km/h (0 Bft) - - - - - - 9,1 C 11,0 C 0,0 km/h (0 Bft) 0,00 %
_ Max-Zeit 17:00 02:45 10:30 02:15 23:30 - - 12:30 00:00 12:15 12:30 16:15 17:00 23:30 00:00
Maximum _ 18,6 C 88 % 1016,0 hPa 0,3 l/m 13,3 km/h
O-SO (3 Bft)
- - 15 min 0,000 mm 3,0 UV-I 327 W/m 12,3 C 18,6 C 19,8 km/h
O-SO (3 Bft)
0,00 %
Durchschnitt _ 14,0 C 81 % 1013,7 hPa #0,3 l/m 0,9 km/h (0 Bft) O-SO - #1:00 h #0,000 mm 1,8 UV-I 144 W/m 10,7 C 13,9 C 1,9 km/h (1 Bft) 0,00 %